Crane Lake, MN

4:35 PM CDT on August 19, 2019 (GMT -0500)
Crane Lake

Weather History for KCDD - June, 2019

Change the Weather History Date:

Wednesday, June 12, 2019

  Actual Average Record
Temperature  
Mean Temperature 48 °F -  
Max Temperature 59 °F 68 °F 89 °F (2007)
Min Temperature 35 °F 46 °F 35 °F (2011)
Degree Days  
Heating Degree Days 17    
Moisture  
Dew Point 37 °F    
Average Humidity 65    
Maximum Humidity 100    
Minimum Humidity 34    
Precipitation  
Precipitation 0.00 in - - ()
Sea Level Pressure  
Sea Level Pressure 30.07 in    
Wind  
Wind Speed 4 mph (North)    
Max Wind Speed 12 mph    
Max Gust Speed 17 mph    
Visibility 10 miles    
Events      
Averages and records for this station are not official NWS values.
T = Trace of Precipitation, MM = Missing Value Source: NWS Daily Summary

Daily Weather History Graph

Daily Weather History Graph

Search for Another Location

Airport or City:

Astronomy

Jun. 12, 2019 Rise Set
Actual Time 5:08 AM CDT 9:10 PM CDT
Civil Twilight 4:27 AM CDT 9:52 PM CDT
Nautical Twilight 3:29 AM CDT 10:50 PM CDT
Astronomical Twilight 1:50 AM CDT 12:30 AM CDT
Moon 3:53 PM CDT (6/12) 2:52 AM CDT (6/12)
Length of Visible Light 17h 24m
Length of Day
16h 01m
Waxing Gibbous, 77% of the Moon is Illuminated
Jun 12
Waxing Gibbous
Jun 17
Full
Jun 25
Last Quarter
Jul 2
New
Jul 9
First Quarter

Hourly Weather History & Observations

Time (CDT) Temp. Windchill Dew Point Humidity Pressure Visibility Wind Dir Wind Speed Gust Speed Precip Events Conditions
12:30 AM 42.8 °F - 42.8 °F 100% 29.99 in 7.0 mi Calm Calm - N/A   Mostly Cloudy
12:55 AM 42.8 °F - 42.8 °F 100% 29.98 in 7.0 mi Calm Calm - N/A   Scattered Clouds
2:55 AM 39.2 °F - 39.2 °F 100% 30.00 in 0.8 mi Calm Calm - N/A   Mostly Cloudy
3:11 AM 44.6 °F 40.7 °F 44.6 °F 100% 30.00 in 10.0 mi North 6.9 mph - N/A   Scattered Clouds
3:55 AM 46.4 °F 45.2 °F 46.4 °F 100% 30.02 in 10.0 mi North 3.5 mph - N/A   Clear
4:55 AM 46.4 °F - 42.8 °F 87% 30.03 in 10.0 mi Calm Calm - N/A   Scattered Clouds
5:11 AM 46.4 °F 45.2 °F 42.8 °F 87% 30.04 in 10.0 mi NNW 3.5 mph - N/A   Scattered Clouds
5:55 AM 44.6 °F 41.4 °F 42.8 °F 93% 30.06 in 10.0 mi North 5.8 mph - N/A   Scattered Clouds
6:55 AM 46.4 °F 44.3 °F 42.8 °F 87% 30.07 in 10.0 mi North 4.6 mph - N/A   Clear
7:30 AM 46.4 °F 44.3 °F 42.8 °F 87% 30.08 in 10.0 mi North 4.6 mph - N/A   Clear
7:51 AM 46.4 °F 42.9 °F 42.8 °F 87% 30.08 in 10.0 mi North 6.9 mph - N/A   Scattered Clouds
7:55 AM 46.4 °F 42.9 °F 42.8 °F 87% 30.08 in 10.0 mi North 6.9 mph - N/A   Scattered Clouds
8:55 AM 50.0 °F - 41.0 °F 71% 30.09 in 10.0 mi North 6.9 mph - N/A   Clear
9:11 AM 51.8 °F - 42.8 °F 71% 30.09 in 10.0 mi North 8.1 mph - N/A   Clear
9:51 AM 51.8 °F - 42.8 °F 71% 30.10 in 10.0 mi NNW 8.1 mph - N/A   Mostly Cloudy
9:55 AM 51.8 °F - 42.8 °F 71% 30.10 in 10.0 mi NNW 6.9 mph - N/A   Mostly Cloudy
10:55 AM 53.6 °F - 39.2 °F 58% 30.10 in 10.0 mi North 6.9 mph - N/A   Mostly Cloudy
11:55 AM 53.6 °F - 35.6 °F 51% 30.10 in 10.0 mi North 8.1 mph - N/A   Mostly Cloudy
12:30 PM 55.4 °F - 33.8 °F 44% 30.10 in 10.0 mi North 8.1 mph - N/A   Overcast
12:55 PM 57.2 °F - 35.6 °F 44% 30.10 in 10.0 mi North 10.4 mph 17.3 mph N/A   Mostly Cloudy
1:50 PM 55.4 °F - 33.8 °F 44% 30.10 in 10.0 mi NNW 9.2 mph 17.3 mph N/A   Mostly Cloudy
1:55 PM 55.4 °F - 33.8 °F 44% 30.10 in 10.0 mi NNW 10.4 mph 17.3 mph N/A   Overcast
2:55 PM 57.2 °F - 33.8 °F 41% 30.09 in 10.0 mi NNW 8.1 mph - N/A   Mostly Cloudy
3:10 PM 57.2 °F - 33.8 °F 41% 30.09 in 10.0 mi NNW 6.9 mph - N/A   Scattered Clouds
3:50 PM 59.0 °F - 32.0 °F 36% 30.08 in 10.0 mi North 5.8 mph - N/A   Mostly Cloudy
3:55 PM 57.2 °F - 32.0 °F 38% 30.08 in 10.0 mi NNW 11.5 mph - N/A   Mostly Cloudy
4:55 PM 59.0 °F - 30.2 °F 34% 30.07 in 10.0 mi North 8.1 mph - N/A   Overcast
5:11 PM 57.2 °F - 32.0 °F 38% 30.07 in 10.0 mi North 6.9 mph - N/A   Mostly Cloudy
5:30 PM 57.2 °F - 32.0 °F 38% 30.07 in 10.0 mi NNW 6.9 mph - N/A   Mostly Cloudy
5:55 PM 59.0 °F - 33.8 °F 39% 30.07 in 10.0 mi NNW 9.2 mph - N/A   Mostly Cloudy
6:11 PM 57.2 °F - 30.2 °F 36% 30.07 in 10.0 mi NNW 9.2 mph - N/A   Overcast
6:51 PM 59.0 °F - 30.2 °F 34% 30.06 in 10.0 mi North 4.6 mph - N/A   Overcast
6:55 PM 59.0 °F - 30.2 °F 34% 30.06 in 10.0 mi NNW 5.8 mph - N/A   Overcast
7:55 PM 57.2 °F - 30.2 °F 36% 30.06 in 10.0 mi Calm Calm - N/A   Clear
8:11 PM 57.2 °F - 33.8 °F 41% 30.06 in 10.0 mi Calm Calm - N/A   Clear
8:55 PM 46.4 °F - 41.0 °F 81% 30.06 in 10.0 mi Calm Calm - N/A   Clear
9:55 PM 41.0 °F - 37.4 °F 87% 30.06 in 10.0 mi Calm Calm - N/A   Clear
10:55 PM 37.4 °F - 35.6 °F 93% 30.06 in 10.0 mi Calm Calm - N/A   Clear
11:55 PM 35.6 °F - 35.6 °F 100% 30.05 in 10.0 mi Calm Calm - N/A   Clear